FCN587 MMTG-TNCA

Flight info

Callsign FCN587
Flight time 3h 5m
Altitude 37000
Route KESLI DCT BTO DCT KITIS UM787 ROPOL DCT AMBAS AMBAS2A
Aircraft A321/M-SDE3FGHIRWY/LB1

Departure

Time 2026-04-29 22:25
Airport Angel Albino Corzo International Airport (MMTG)

Arrival

Time 2026-04-30 01:30
Airport Queen Beatrix International Airport (TNCA)
Time Latitude Longitude Altitude Speed Heading
2026-04-29 22:08 16.56086 -93.02106 1513 ft 0 kts 107°
2026-04-29 22:15 16.56087 -93.02110 1515 ft 2 kts 106°
2026-04-29 22:15 16.56092 -93.02129 1512 ft 3 kts 99°
2026-04-29 22:15 16.56094 -93.02150 1510 ft 3 kts 89°
2026-04-29 22:16 16.56093 -93.02170 1510 ft 3 kts 77°
2026-04-29 22:16 16.56087 -93.02190 1513 ft 3 kts 64°
2026-04-29 22:16 16.56077 -93.02208 1512 ft 3 kts 51°
2026-04-29 22:16 16.56064 -93.02224 1514 ft 3 kts 41°
2026-04-29 22:17 16.56048 -93.02238 1514 ft 3 kts 41°
2026-04-29 22:17 16.56035 -93.02252 1511 ft 3 kts 59°
2026-04-29 22:17 16.56025 -93.02270 1510 ft 2 kts 62°
2026-04-29 22:17 16.56023 -93.02275 1510 ft 2 kts 60°
2026-04-29 22:18 16.56022 -93.02275 1509 ft 0 kts 60°
2026-04-29 22:19 16.56023 -93.02274 1514 ft 0 kts 60°
2026-04-29 22:20 16.56026 -93.02268 1514 ft 5 kts 60°
2026-04-29 22:20 16.56035 -93.02225 1514 ft 6 kts 103°
2026-04-29 22:20 16.56019 -93.02194 1514 ft 4 kts 129°
2026-04-29 22:20 16.55998 -93.02175 1514 ft 4 kts 146°
2026-04-29 22:21 16.55972 -93.02157 1514 ft 8 kts 147°
2026-04-29 22:21 16.55901 -93.02119 1514 ft 11 kts 180°
2026-04-29 22:21 16.55842 -93.02161 1513 ft 11 kts 211°
2026-04-29 22:21 16.55744 -93.02129 1514 ft 17 kts 148°
2026-04-29 22:22 16.55650 -93.02067 1514 ft 15 kts 148°
2026-04-29 22:22 16.55561 -93.02011 1512 ft 14 kts 148°
2026-04-29 22:22 16.55481 -93.01960 1511 ft 13 kts 148°
2026-04-29 22:22 16.55411 -93.01915 1514 ft 11 kts 148°
2026-04-29 22:23 16.55345 -93.01876 1513 ft 10 kts 160°
2026-04-29 22:23 16.55287 -93.01905 1511 ft 9 kts 230°
2026-04-29 22:23 16.55256 -93.01959 1509 ft 9 kts 244°
2026-04-29 22:23 16.55253 -93.02011 1512 ft 6 kts 306°
2026-04-29 22:24 16.55284 -93.02036 1513 ft 5 kts 326°
2026-04-29 22:24 16.55313 -93.02055 1513 ft 8 kts 329°
2026-04-29 22:24 16.55531 -93.02193 1514 ft 70 kts 328°
2026-04-29 22:24 16.56118 -93.02567 1512 ft 125 kts 328°
2026-04-29 22:25 16.56976 -93.03110 1614 ft 157 kts 329°
2026-04-29 22:25 16.57905 -93.03685 2216 ft 156 kts 331°
2026-04-29 22:25 16.58841 -93.04286 2729 ft 160 kts 329°
2026-04-29 22:25 16.59794 -93.04894 3190 ft 162 kts 332°
2026-04-29 22:26 16.60949 -93.04993 3429 ft 184 kts 21°
2026-04-29 22:26 16.61888 -93.04040 3589 ft 208 kts 67°
2026-04-29 22:26 16.61921 -93.02461 3718 ft 230 kts 109°
2026-04-29 22:26 16.61026 -93.01030 3843 ft 252 kts 132°
2026-04-29 22:27 16.59709 -92.99685 4084 ft 275 kts 138°
2026-04-29 22:27 16.58250 -92.98352 4630 ft 282 kts 139°
2026-04-29 22:27 16.56768 -92.96987 5268 ft 286 kts 138°
2026-04-29 22:27 16.55292 -92.95572 5955 ft 289 kts 137°
2026-04-29 22:28 16.53837 -92.94115 6624 ft 292 kts 135°
2026-04-29 22:28 16.52393 -92.92621 7259 ft 294 kts 134°
2026-04-29 22:28 16.50952 -92.91104 7925 ft 295 kts 134°
2026-04-29 22:28 16.49507 -92.89570 8600 ft 298 kts 134°
2026-04-29 22:29 16.48055 -92.88020 9267 ft 300 kts 133°
2026-04-29 22:29 16.46591 -92.86457 9910 ft 303 kts 133°
2026-04-29 22:29 16.45090 -92.84853 10219 ft 319 kts 133°
2026-04-29 22:29 16.43490 -92.83144 10349 ft 340 kts 133°
2026-04-29 22:30 16.41813 -92.81359 10776 ft 348 kts 132°
2026-04-29 22:30 16.40136 -92.79579 11336 ft 350 kts 131°
2026-04-29 22:30 16.38423 -92.77761 11969 ft 353 kts 131°
2026-04-29 22:30 16.36700 -92.75932 12595 ft 355 kts 130°
2026-04-29 22:31 16.34968 -92.74094 13277 ft 357 kts 130°
2026-04-29 22:31 16.33227 -92.72242 13855 ft 358 kts 128°
2026-04-29 22:31 16.31730 -92.70191 14350 ft 355 kts 116°
2026-04-29 22:31 16.30718 -92.67860 14886 ft 353 kts 104°
2026-04-29 22:32 16.30226 -92.65375 15403 ft 352 kts 92°
2026-04-29 22:32 16.30023 -92.62827 15939 ft 354 kts 92°
2026-04-29 22:32 16.29816 -92.60265 16481 ft 357 kts 92°
2026-04-29 22:32 16.29600 -92.57683 17033 ft 360 kts 92°
2026-04-29 22:33 16.29380 -92.55078 17577 ft 362 kts 92°
2026-04-29 22:33 16.29162 -92.52494 18085 ft 365 kts 92°
2026-04-29 22:33 16.28940 -92.49856 18525 ft 367 kts 92°
2026-04-29 22:33 16.28715 -92.47199 18957 ft 370 kts 92°
2026-04-29 22:34 16.28489 -92.44521 19386 ft 373 kts 92°
2026-04-29 22:34 16.28262 -92.41827 19863 ft 375 kts 92°
2026-04-29 22:34 16.28035 -92.39115 20290 ft 377 kts 91°
2026-04-29 22:34 16.27803 -92.36391 20713 ft 380 kts 91°
2026-04-29 22:35 16.27563 -92.33640 21102 ft 383 kts 91°
2026-04-29 22:35 16.27322 -92.30875 21502 ft 385 kts 91°
2026-04-29 22:35 16.27080 -92.28087 21934 ft 388 kts 91°
2026-04-29 22:35 16.26837 -92.25266 22216 ft 394 kts 91°
2026-04-29 22:36 16.26594 -92.22447 22545 ft 398 kts 91°
2026-04-29 22:36 16.26347 -92.19569 22881 ft 402 kts 91°
2026-04-29 22:36 16.26097 -92.16669 23231 ft 405 kts 91°
2026-04-29 22:36 16.25845 -92.13743 23605 ft 407 kts 91°
2026-04-29 22:37 16.25590 -92.10800 23929 ft 409 kts 91°
2026-04-29 22:37 16.25336 -92.07851 24237 ft 411 kts 91°
2026-04-29 22:37 16.25080 -92.04886 24580 ft 412 kts 91°
2026-04-29 22:37 16.24822 -92.01905 24922 ft 414 kts 91°
2026-04-29 22:38 16.24562 -91.98918 25253 ft 416 kts 91°
2026-04-29 22:38 16.24300 -91.95916 25573 ft 417 kts 91°
2026-04-29 22:38 16.24035 -91.92901 25913 ft 419 kts 91°
2026-04-29 22:38 16.23772 -91.89920 26264 ft 420 kts 90°
2026-04-29 22:39 16.23504 -91.86903 26691 ft 419 kts 90°
2026-04-29 22:39 16.23235 -91.83874 27045 ft 420 kts 90°
2026-04-29 22:39 16.22968 -91.80841 27386 ft 422 kts 90°
2026-04-29 22:39 16.22700 -91.77790 27719 ft 424 kts 90°
2026-04-29 22:40 16.22432 -91.74728 28038 ft 426 kts 90°
2026-04-29 22:40 16.22164 -91.71653 28354 ft 428 kts 90°
2026-04-29 22:40 16.21895 -91.68568 28673 ft 430 kts 90°
2026-04-29 22:40 16.21624 -91.65466 28994 ft 432 kts 90°
2026-04-29 22:41 16.21349 -91.62348 29289 ft 434 kts 90°
2026-04-29 22:41 16.21068 -91.59217 29591 ft 436 kts 90°
2026-04-29 22:41 16.20789 -91.56114 29845 ft 438 kts 91°
2026-04-29 22:41 16.20503 -91.52951 30082 ft 440 kts 90°
2026-04-29 22:42 16.20218 -91.49781 30310 ft 441 kts 90°
2026-04-29 22:42 16.19932 -91.46591 30541 ft 444 kts 90°
2026-04-29 22:42 16.19644 -91.43389 30765 ft 446 kts 90°
2026-04-29 22:42 16.19356 -91.40173 30986 ft 448 kts 90°
2026-04-29 22:43 16.19067 -91.36936 31206 ft 450 kts 90°
2026-04-29 22:43 16.18775 -91.33700 31531 ft 449 kts 90°
2026-04-29 22:43 16.18482 -91.30463 31874 ft 449 kts 90°
2026-04-29 22:43 16.18191 -91.27240 32197 ft 448 kts 90°
2026-04-29 22:44 16.17899 -91.24010 32554 ft 448 kts 91°
2026-04-29 22:44 16.17609 -91.20832 32889 ft 447 kts 91°
2026-04-29 22:44 16.17316 -91.17619 33237 ft 447 kts 91°
2026-04-29 22:44 16.17022 -91.14402 33593 ft 446 kts 91°
2026-04-29 22:45 16.16730 -91.11182 33899 ft 447 kts 91°
2026-04-29 22:45 16.16433 -91.07957 34184 ft 447 kts 91°
2026-04-29 22:45 16.16140 -91.04740 34459 ft 447 kts 91°
2026-04-29 22:45 16.15849 -91.01521 34746 ft 447 kts 91°
2026-04-29 22:46 16.15556 -90.98304 35020 ft 447 kts 91°
2026-04-29 22:46 16.15258 -90.95084 35291 ft 447 kts 91°
2026-04-29 22:46 16.14958 -90.91864 35545 ft 448 kts 91°
2026-04-29 22:46 16.14659 -90.88641 35812 ft 448 kts 91°
2026-04-29 22:47 16.14346 -90.85418 36070 ft 448 kts 92°
2026-04-29 22:47 16.14015 -90.82242 36320 ft 448 kts 92°
2026-04-29 22:47 16.13662 -90.79019 36568 ft 448 kts 93°
2026-04-29 22:47 16.13302 -90.75798 36781 ft 449 kts 93°
2026-04-29 22:48 16.12940 -90.72570 36846 ft 448 kts 93°
2026-04-29 22:48 16.12234 -90.66157 36839 ft 446 kts 93°
2026-04-29 22:49 16.11536 -90.59748 36842 ft 446 kts 93°
2026-04-29 22:49 16.10837 -90.53348 36856 ft 446 kts 93°
2026-04-29 22:50 16.10134 -90.46947 36855 ft 446 kts 93°
2026-04-29 22:50 16.09425 -90.40545 36881 ft 446 kts 93°
2026-04-29 22:51 16.08718 -90.34184 36874 ft 446 kts 93°
2026-04-29 22:51 16.07655 -90.24552 36905 ft 448 kts 93°
2026-04-29 22:52 16.06935 -90.18111 36907 ft 448 kts 93°
2026-04-29 22:52 16.06217 -90.11671 36936 ft 449 kts 93°
2026-04-29 22:53 16.05497 -90.05228 36944 ft 449 kts 93°
2026-04-29 22:53 16.04774 -89.98781 36933 ft 449 kts 93°
2026-04-29 22:54 16.04052 -89.92364 36916 ft 450 kts 93°
2026-04-29 22:54 16.03320 -89.85893 36915 ft 451 kts 93°
2026-04-29 22:55 16.02586 -89.79409 36915 ft 452 kts 93°
2026-04-29 22:55 16.01852 -89.72913 36919 ft 453 kts 93°
2026-04-29 22:56 16.01120 -89.66415 36922 ft 453 kts 93°
2026-04-29 22:56 16.00380 -89.59909 36923 ft 453 kts 93°
2026-04-29 22:57 15.99628 -89.53407 36918 ft 453 kts 93°
2026-04-29 22:57 15.98885 -89.46947 36910 ft 453 kts 94°
2026-04-29 22:58 15.98138 -89.40433 36914 ft 454 kts 94°
2026-04-29 22:58 15.97397 -89.33921 36908 ft 454 kts 93°
2026-04-29 22:59 15.96652 -89.27394 36923 ft 454 kts 94°
2026-04-29 22:59 15.95889 -89.20877 36900 ft 455 kts 94°
2026-04-29 23:00 15.95126 -89.14350 36898 ft 455 kts 94°
2026-04-29 23:00 15.94373 -89.07860 36885 ft 456 kts 94°
2026-04-29 23:01 15.93605 -89.01319 36892 ft 456 kts 94°
2026-04-29 23:01 15.92836 -88.94772 36896 ft 456 kts 94°
2026-04-29 23:02 15.92067 -88.88228 36877 ft 456 kts 94°
2026-04-29 23:02 15.91304 -88.81686 36861 ft 457 kts 94°
2026-04-29 23:03 15.90526 -88.75130 36846 ft 457 kts 94°
2026-04-29 23:03 15.89751 -88.68580 36844 ft 458 kts 94°
2026-04-29 23:04 15.88976 -88.62059 36841 ft 458 kts 94°
2026-04-29 23:04 15.88196 -88.55497 36842 ft 458 kts 94°
2026-04-29 23:05 15.87413 -88.48932 36861 ft 458 kts 94°
2026-04-29 23:05 15.86634 -88.42364 36872 ft 458 kts 95°
2026-04-29 23:06 15.85856 -88.35839 36853 ft 458 kts 95°
2026-04-29 23:06 15.85060 -88.29270 36871 ft 459 kts 95°
2026-04-29 23:07 15.84262 -88.22700 36897 ft 459 kts 95°
2026-04-29 23:07 15.83466 -88.16126 36898 ft 459 kts 95°
2026-04-29 23:08 15.82676 -88.09556 36895 ft 459 kts 95°
2026-04-29 23:08 15.81875 -88.02981 36889 ft 459 kts 95°
2026-04-29 23:09 15.81079 -87.96439 36904 ft 460 kts 95°
2026-04-29 23:09 15.80277 -87.89854 36897 ft 460 kts 95°
2026-04-29 23:10 15.79471 -87.83263 36907 ft 460 kts 95°
2026-04-29 23:10 15.78666 -87.76684 36904 ft 460 kts 95°
2026-04-29 23:11 15.77854 -87.70090 36911 ft 460 kts 95°
2026-04-29 23:11 15.77045 -87.63546 36905 ft 461 kts 95°
2026-04-29 23:12 15.76228 -87.56939 36907 ft 461 kts 95°
2026-04-29 23:12 15.75412 -87.50327 36905 ft 462 kts 95°
2026-04-29 23:13 15.74588 -87.43721 36906 ft 462 kts 96°
2026-04-29 23:13 15.73761 -87.37108 36910 ft 462 kts 96°
2026-04-29 23:14 15.72942 -87.30547 36909 ft 462 kts 96°
2026-04-29 23:14 15.72117 -87.23936 36917 ft 462 kts 96°
2026-04-29 23:15 15.71291 -87.17334 36921 ft 461 kts 96°
2026-04-29 23:15 15.70458 -87.10731 36913 ft 461 kts 96°
2026-04-29 23:16 15.69626 -87.04129 36909 ft 462 kts 96°
2026-04-29 23:16 15.68792 -86.97526 36908 ft 462 kts 96°
2026-04-29 23:17 15.67960 -86.90959 36911 ft 462 kts 96°
2026-04-29 23:17 15.67117 -86.84357 36909 ft 462 kts 96°
2026-04-29 23:18 15.66277 -86.77748 36921 ft 462 kts 96°
2026-04-29 23:18 15.65435 -86.71142 36907 ft 462 kts 96°
2026-04-29 23:19 15.64592 -86.64544 36909 ft 462 kts 96°
2026-04-29 23:19 15.63744 -86.57945 36918 ft 462 kts 96°
2026-04-29 23:20 15.62897 -86.51381 36921 ft 462 kts 96°
2026-04-29 23:20 15.62046 -86.44779 36927 ft 462 kts 96°
2026-04-29 23:21 15.61198 -86.38170 36931 ft 462 kts 96°
2026-04-29 23:21 15.60344 -86.31558 36951 ft 462 kts 97°
2026-04-29 23:22 15.59483 -86.24951 36968 ft 462 kts 96°
2026-04-29 23:22 15.58626 -86.18393 36964 ft 462 kts 97°
2026-04-29 23:23 15.57764 -86.11794 36967 ft 462 kts 97°
2026-04-29 23:23 15.56903 -86.05198 36969 ft 462 kts 96°
2026-04-29 23:24 15.56041 -85.98599 36965 ft 461 kts 96°
2026-04-29 23:24 15.55176 -85.92008 36973 ft 461 kts 96°
2026-04-29 23:25 15.54307 -85.85418 36973 ft 461 kts 96°
2026-04-29 23:25 15.53444 -85.78868 36974 ft 461 kts 96°
2026-04-29 23:26 15.52579 -85.72277 36973 ft 461 kts 96°
2026-04-29 23:26 15.51703 -85.65692 36970 ft 461 kts 96°
2026-04-29 23:27 15.50822 -85.59092 36970 ft 461 kts 97°
2026-04-29 23:27 15.49948 -85.52505 36976 ft 461 kts 96°
2026-04-29 23:28 15.49068 -85.45915 36986 ft 462 kts 97°
2026-04-29 23:28 15.48333 -85.40438 36981 ft 462 kts 97°
2026-04-29 23:29 15.47302 -85.32771 36985 ft 462 kts 97°
2026-04-29 23:29 15.46410 -85.26173 36976 ft 463 kts 97°
2026-04-29 23:30 15.45669 -85.20683 36971 ft 463 kts 97°
2026-04-29 23:30 15.44779 -85.14085 36985 ft 463 kts 97°
2026-04-29 23:31 15.43881 -85.07466 36987 ft 463 kts 97°
2026-04-29 23:31 15.42991 -85.00858 36986 ft 463 kts 97°
2026-04-29 23:32 15.42095 -84.94252 36967 ft 463 kts 98°
2026-04-29 23:32 15.41192 -84.87645 36972 ft 463 kts 97°
2026-04-29 23:33 15.40294 -84.81028 36955 ft 463 kts 98°
2026-04-29 23:33 15.39395 -84.74463 36967 ft 463 kts 98°
2026-04-29 23:34 15.38491 -84.67857 36957 ft 463 kts 98°
2026-04-29 23:34 15.37583 -84.61252 36942 ft 464 kts 98°
2026-04-29 23:35 15.36658 -84.54630 36937 ft 464 kts 98°
2026-04-29 23:35 15.35752 -84.48013 36935 ft 464 kts 98°
2026-04-29 23:36 15.34837 -84.41361 36932 ft 476 kts 98°
2026-04-29 23:36 15.33889 -84.34508 36925 ft 483 kts 98°
2026-04-29 23:37 15.32927 -84.27601 36925 ft 485 kts 99°
2026-04-29 23:37 15.31956 -84.20646 36924 ft 490 kts 99°
2026-04-29 23:38 15.30976 -84.13652 36923 ft 491 kts 99°
2026-04-29 23:38 15.29998 -84.06660 36930 ft 491 kts 99°
2026-04-29 23:39 15.29024 -83.99701 36925 ft 491 kts 99°
2026-04-29 23:39 15.28038 -83.92699 36938 ft 491 kts 99°
2026-04-29 23:40 15.27045 -83.85697 36912 ft 493 kts 99°
2026-04-29 23:40 15.26049 -83.78663 36909 ft 494 kts 101°
2026-04-29 23:41 15.24473 -83.71760 36909 ft 493 kts 105°
2026-04-29 23:41 15.22816 -83.64864 36913 ft 494 kts 105°
2026-04-29 23:42 15.21175 -83.58010 36921 ft 494 kts 105°
2026-04-29 23:42 15.19516 -83.51118 36919 ft 494 kts 106°
2026-04-29 23:43 15.17851 -83.44205 36909 ft 495 kts 106°
2026-04-29 23:43 15.16177 -83.37282 36913 ft 496 kts 106°
2026-04-29 23:44 15.14496 -83.30353 36936 ft 497 kts 106°
2026-04-29 23:44 15.12812 -83.23413 36928 ft 497 kts 106°
2026-04-29 23:45 15.11129 -83.16468 36928 ft 498 kts 106°
2026-04-29 23:45 15.09450 -83.09562 36943 ft 498 kts 107°
2026-04-29 23:46 15.07756 -83.02615 36947 ft 498 kts 107°
2026-04-29 23:46 15.06057 -82.95659 36943 ft 498 kts 106°
2026-04-29 23:47 15.04369 -82.88707 36945 ft 498 kts 107°
2026-04-29 23:47 15.02670 -82.81766 36947 ft 498 kts 107°
2026-04-29 23:48 15.00971 -82.74824 36949 ft 498 kts 107°
2026-04-29 23:48 14.99281 -82.67932 36941 ft 498 kts 107°
2026-04-29 23:49 14.97576 -82.60996 36933 ft 498 kts 107°
2026-04-29 23:49 14.95865 -82.54056 36937 ft 498 kts 107°
2026-04-29 23:50 14.94159 -82.47130 36943 ft 498 kts 107°
2026-04-29 23:51 14.91604 -82.36716 36938 ft 498 kts 107°
2026-04-29 23:51 14.89895 -82.29785 36938 ft 498 kts 107°
2026-04-29 23:52 14.88184 -82.22894 36942 ft 498 kts 107°
2026-04-29 23:52 14.86468 -82.15957 36945 ft 498 kts 107°
2026-04-29 23:53 14.84746 -82.09022 36948 ft 498 kts 107°
2026-04-29 23:53 14.83022 -82.02090 36936 ft 498 kts 107°
2026-04-29 23:54 14.81291 -81.95151 36945 ft 498 kts 107°
2026-04-29 23:54 14.79574 -81.88222 36945 ft 498 kts 107°
2026-04-29 23:55 14.77850 -81.81284 36940 ft 498 kts 107°
2026-04-29 23:55 14.76134 -81.74399 36944 ft 498 kts 108°
2026-04-29 23:56 14.74397 -81.67468 36945 ft 498 kts 108°
2026-04-29 23:56 14.72665 -81.60554 36949 ft 497 kts 108°
2026-04-29 23:57 14.70928 -81.53637 36950 ft 497 kts 108°
2026-04-29 23:57 14.69192 -81.46729 36950 ft 497 kts 108°
2026-04-29 23:58 14.67477 -81.39864 36949 ft 497 kts 108°
2026-04-29 23:58 14.65742 -81.32960 36945 ft 496 kts 108°
2026-04-29 23:59 14.64000 -81.26066 36938 ft 496 kts 108°
2026-04-29 23:59 14.62261 -81.19178 36938 ft 496 kts 108°
2026-04-30 00:00 14.60529 -81.12285 36940 ft 496 kts 108°
2026-04-30 00:00 14.58806 -81.05448 36937 ft 496 kts 108°
2026-04-30 00:01 14.57066 -80.98561 36939 ft 496 kts 108°
2026-04-30 00:01 14.55322 -80.91680 36940 ft 496 kts 108°
2026-04-30 00:02 14.53575 -80.84788 36943 ft 496 kts 108°
2026-04-30 00:02 14.51832 -80.77900 36939 ft 496 kts 108°
2026-04-30 00:03 14.50078 -80.71012 36937 ft 496 kts 109°
2026-04-30 00:03 14.48333 -80.64171 36943 ft 497 kts 109°
2026-04-30 00:04 14.46577 -80.57278 36945 ft 496 kts 109°
2026-04-30 00:04 14.44822 -80.50394 36942 ft 497 kts 109°
2026-04-30 00:05 14.43055 -80.43501 36941 ft 497 kts 109°
2026-04-30 00:05 14.41288 -80.36625 36941 ft 496 kts 109°
2026-04-30 00:06 14.39541 -80.29788 36931 ft 496 kts 109°
2026-04-30 00:06 14.37782 -80.22914 36932 ft 496 kts 109°
2026-04-30 00:07 14.36009 -80.16048 36933 ft 496 kts 109°
2026-04-30 00:07 14.34234 -80.09173 36937 ft 496 kts 109°
2026-04-30 00:08 14.32469 -80.02305 36941 ft 496 kts 109°
2026-04-30 00:08 14.30698 -79.95434 36941 ft 496 kts 109°
2026-04-30 00:09 14.28937 -79.88616 36933 ft 495 kts 109°
2026-04-30 00:09 14.27166 -79.81750 36934 ft 495 kts 109°
2026-04-30 00:10 14.25394 -79.74895 36936 ft 495 kts 109°
2026-04-30 00:10 14.23608 -79.68033 36936 ft 495 kts 109°
2026-04-30 00:11 14.21832 -79.61184 36936 ft 495 kts 109°
2026-04-30 00:11 14.20055 -79.54328 36935 ft 495 kts 109°
2026-04-30 00:12 14.18272 -79.47475 36931 ft 495 kts 109°
2026-04-30 00:12 14.16496 -79.40676 36925 ft 495 kts 109°
2026-04-30 00:13 14.14707 -79.33834 36922 ft 495 kts 109°
2026-04-30 00:13 14.12913 -79.26980 36923 ft 495 kts 109°
2026-04-30 00:14 14.11120 -79.20127 36922 ft 495 kts 110°
2026-04-30 00:14 14.09316 -79.13277 36927 ft 495 kts 110°
2026-04-30 00:15 14.07516 -79.06425 36926 ft 496 kts 109°
2026-04-30 00:15 14.05719 -78.99572 36917 ft 496 kts 110°
2026-04-30 00:16 14.03904 -78.92714 36924 ft 496 kts 110°
2026-04-30 00:16 14.02090 -78.85899 36919 ft 497 kts 110°
2026-04-30 00:17 14.00273 -78.79029 36919 ft 497 kts 110°
2026-04-30 00:17 13.98458 -78.72160 36921 ft 497 kts 110°
2026-04-30 00:18 13.96637 -78.65292 36918 ft 498 kts 110°
2026-04-30 00:18 13.94814 -78.58419 36918 ft 498 kts 110°
2026-04-30 00:19 13.92982 -78.51540 36911 ft 498 kts 110°
2026-04-30 00:19 13.91146 -78.44658 36917 ft 499 kts 110°
2026-04-30 00:20 13.89331 -78.37820 36925 ft 499 kts 110°
2026-04-30 00:20 13.87496 -78.30934 36929 ft 499 kts 110°
2026-04-30 00:21 13.85648 -78.24049 36928 ft 499 kts 110°
2026-04-30 00:21 13.83805 -78.17175 36929 ft 499 kts 110°
2026-04-30 00:22 13.81965 -78.10290 36932 ft 499 kts 110°
2026-04-30 00:22 13.80132 -78.03414 36928 ft 498 kts 110°
2026-04-30 00:23 13.78303 -77.96591 36927 ft 498 kts 111°
2026-04-30 00:23 13.76447 -77.89724 36920 ft 498 kts 111°
2026-04-30 00:24 13.74599 -77.82856 36922 ft 499 kts 111°
2026-04-30 00:24 13.72747 -77.75986 36920 ft 499 kts 111°
2026-04-30 00:25 13.70893 -77.69109 36917 ft 499 kts 111°
2026-04-30 00:25 13.69052 -77.62290 36918 ft 499 kts 111°
2026-04-30 00:26 13.67197 -77.55412 36914 ft 499 kts 111°
2026-04-30 00:26 13.65343 -77.48541 36911 ft 499 kts 111°
2026-04-30 00:27 13.63527 -77.41654 36912 ft 502 kts 107°
2026-04-30 00:27 13.62500 -77.34526 36912 ft 505 kts 103°
2026-04-30 00:28 13.61538 -77.27431 36910 ft 505 kts 103°
2026-04-30 00:28 13.60562 -77.20288 36910 ft 505 kts 103°
2026-04-30 00:29 13.59583 -77.13134 36910 ft 505 kts 103°
2026-04-30 00:29 13.58607 -77.05983 36905 ft 506 kts 103°
2026-04-30 00:30 13.57627 -76.98822 36909 ft 506 kts 103°
2026-04-30 00:30 13.56636 -76.91664 36907 ft 506 kts 103°
2026-04-30 00:31 13.55656 -76.84543 36911 ft 507 kts 103°
2026-04-30 00:31 13.54670 -76.77365 36918 ft 507 kts 103°
2026-04-30 00:32 13.53680 -76.70192 36920 ft 507 kts 103°
2026-04-30 00:32 13.52684 -76.63017 36921 ft 507 kts 103°
2026-04-30 00:33 13.51690 -76.55838 36917 ft 507 kts 103°
2026-04-30 00:33 13.50698 -76.48705 36922 ft 508 kts 103°
2026-04-30 00:34 13.49691 -76.41530 36923 ft 508 kts 103°
2026-04-30 00:34 13.48681 -76.34351 36922 ft 507 kts 103°
2026-04-30 00:35 13.47673 -76.27181 36922 ft 507 kts 103°
2026-04-30 00:35 13.46669 -76.20013 36924 ft 507 kts 103°
2026-04-30 00:36 13.45669 -76.12856 36927 ft 506 kts 103°
2026-04-30 00:36 13.44665 -76.05747 36927 ft 506 kts 103°
2026-04-30 00:37 13.43656 -75.98605 36922 ft 505 kts 103°
2026-04-30 00:37 13.42587 -75.91486 36917 ft 505 kts 103°
2026-04-30 00:38 13.41603 -75.84347 36918 ft 505 kts 103°
2026-04-30 00:38 13.40629 -75.77205 36918 ft 505 kts 103°
2026-04-30 00:39 13.39615 -75.70071 36911 ft 505 kts 103°
2026-04-30 00:39 13.38585 -75.62941 36912 ft 505 kts 103°
2026-04-30 00:40 13.37565 -75.55852 36921 ft 505 kts 103°
2026-04-30 00:40 13.36541 -75.48706 36922 ft 505 kts 103°
2026-04-30 00:41 13.35520 -75.41568 36918 ft 505 kts 103°
2026-04-30 00:41 13.34494 -75.34429 36915 ft 506 kts 103°
2026-04-30 00:42 13.33460 -75.27275 36917 ft 506 kts 103°
2026-04-30 00:42 13.32425 -75.20130 36918 ft 506 kts 103°
2026-04-30 00:43 13.31409 -75.13112 36907 ft 488 kts 103°
2026-04-30 00:43 13.30432 -75.06305 36904 ft 484 kts 103°
2026-04-30 00:44 13.29411 -74.99369 36900 ft 499 kts 103°
2026-04-30 00:44 13.28375 -74.92269 36899 ft 505 kts 103°
2026-04-30 00:45 13.27336 -74.85135 36905 ft 506 kts 103°
2026-04-30 00:45 13.26300 -74.77994 36904 ft 506 kts 103°
2026-04-30 00:46 13.25265 -74.70907 36902 ft 506 kts 103°
2026-04-30 00:46 13.24212 -74.63767 36903 ft 506 kts 103°
2026-04-30 00:47 13.23161 -74.56628 36907 ft 506 kts 103°
2026-04-30 00:47 13.22105 -74.49490 36910 ft 506 kts 103°
2026-04-30 00:48 13.21051 -74.42355 36908 ft 506 kts 103°
2026-04-30 00:48 13.19994 -74.35208 36905 ft 506 kts 103°
2026-04-30 00:49 13.18928 -74.28067 36910 ft 506 kts 103°
2026-04-30 00:49 13.17875 -74.20967 36919 ft 507 kts 103°
2026-04-30 00:50 13.16819 -74.13817 36915 ft 507 kts 103°
2026-04-30 00:50 13.15753 -74.06666 36918 ft 507 kts 103°
2026-04-30 00:51 13.14683 -73.99525 36909 ft 507 kts 103°
2026-04-30 00:51 13.13606 -73.92378 36912 ft 507 kts 103°
2026-04-30 00:52 13.12539 -73.85281 36921 ft 507 kts 103°
2026-04-30 00:52 13.11464 -73.78114 36920 ft 508 kts 103°
2026-04-30 00:53 13.10391 -73.70960 36917 ft 508 kts 103°
2026-04-30 00:53 13.09316 -73.63795 36923 ft 508 kts 103°
2026-04-30 00:54 13.08230 -73.56634 36920 ft 509 kts 103°
2026-04-30 00:54 13.07148 -73.49510 36922 ft 509 kts 103°
2026-04-30 00:55 13.06056 -73.42343 36916 ft 509 kts 103°
2026-04-30 00:55 13.04419 -73.31580 36924 ft 509 kts 103°
2026-04-30 00:56 13.03509 -73.25615 36921 ft 509 kts 103°
2026-04-30 00:56 13.02235 -73.17235 36922 ft 509 kts 103°
2026-04-30 00:57 13.01324 -73.11270 36922 ft 509 kts 103°
2026-04-30 00:57 13.00222 -73.04097 36924 ft 509 kts 103°
2026-04-30 00:58 12.99123 -72.96971 36929 ft 509 kts 103°
2026-04-30 00:58 12.98020 -72.89801 36922 ft 509 kts 103°
2026-04-30 00:59 12.96921 -72.82631 36933 ft 509 kts 103°
2026-04-30 00:59 12.95815 -72.75467 36921 ft 509 kts 103°
2026-04-30 01:00 12.94709 -72.68305 36922 ft 508 kts 103°
2026-04-30 01:00 12.94170 -72.64819 36901 ft 495 kts 103°
2026-04-30 01:00 12.93635 -72.61374 36906 ft 486 kts 103°
2026-04-30 01:01 12.92575 -72.54559 36642 ft 482 kts 103°
2026-04-30 01:01 12.92047 -72.51167 36388 ft 481 kts 103°
2026-04-30 01:01 12.91520 -72.47790 36152 ft 481 kts 103°
2026-04-30 01:02 12.90991 -72.44404 35913 ft 481 kts 103°
2026-04-30 01:02 12.90459 -72.41013 35670 ft 481 kts 103°
2026-04-30 01:02 12.89929 -72.37623 35435 ft 481 kts 103°
2026-04-30 01:02 12.89402 -72.34239 35201 ft 482 kts 102°
2026-04-30 01:03 12.88873 -72.30847 34966 ft 482 kts 102°
2026-04-30 01:03 12.88345 -72.27456 34736 ft 482 kts 102°
2026-04-30 01:03 12.87823 -72.24106 34517 ft 482 kts 102°
2026-04-30 01:03 12.87292 -72.20715 34291 ft 482 kts 102°
2026-04-30 01:04 12.86757 -72.17336 34056 ft 479 kts 102°
2026-04-30 01:04 12.86225 -72.13980 33820 ft 477 kts 102°
2026-04-30 01:04 12.85694 -72.10621 33561 ft 477 kts 102°
2026-04-30 01:04 12.85166 -72.07270 33315 ft 477 kts 102°
2026-04-30 01:05 12.84636 -72.03916 33055 ft 478 kts 102°
2026-04-30 01:05 12.84104 -72.00552 32804 ft 478 kts 101°
2026-04-30 01:05 12.83576 -71.97185 32556 ft 478 kts 101°
2026-04-30 01:05 12.83048 -71.93823 32310 ft 477 kts 101°
2026-04-30 01:06 12.82525 -71.90472 32064 ft 476 kts 101°
2026-04-30 01:06 12.82001 -71.87138 31822 ft 473 kts 101°
2026-04-30 01:06 12.81476 -71.83818 31583 ft 471 kts 101°
2026-04-30 01:06 12.80955 -71.80555 31349 ft 470 kts 101°
2026-04-30 01:07 12.80428 -71.77265 30949 ft 466 kts 101°
2026-04-30 01:07 12.79901 -71.73997 30365 ft 465 kts 100°
2026-04-30 01:07 12.79377 -71.70742 29763 ft 461 kts 100°
2026-04-30 01:07 12.78860 -71.67510 29180 ft 457 kts 100°
2026-04-30 01:08 12.78348 -71.64309 28616 ft 453 kts 100°
2026-04-30 01:08 12.77841 -71.61170 28064 ft 440 kts 100°
2026-04-30 01:08 12.77342 -71.58100 27537 ft 436 kts 100°
2026-04-30 01:08 12.76847 -71.55039 27006 ft 433 kts 99°
2026-04-30 01:09 12.76358 -71.52008 26494 ft 430 kts 99°
2026-04-30 01:09 12.75873 -71.49006 25992 ft 426 kts 99°
2026-04-30 01:09 12.75389 -71.46025 25503 ft 422 kts 99°
2026-04-30 01:09 12.74911 -71.43062 25016 ft 419 kts 99°
2026-04-30 01:10 12.74437 -71.40133 24536 ft 415 kts 99°
2026-04-30 01:10 12.73973 -71.37270 24073 ft 411 kts 100°
2026-04-30 01:10 12.73506 -71.34395 23591 ft 406 kts 99°
2026-04-30 01:10 12.73050 -71.31584 23065 ft 393 kts 100°
2026-04-30 01:11 12.72608 -71.28861 22603 ft 385 kts 100°
2026-04-30 01:11 12.72171 -71.26172 22136 ft 381 kts 101°
2026-04-30 01:11 12.71735 -71.23504 21675 ft 378 kts 100°
2026-04-30 01:11 12.71304 -71.20860 21192 ft 374 kts 101°
2026-04-30 01:12 12.70875 -71.18241 20731 ft 372 kts 101°
2026-04-30 01:12 12.70451 -71.15645 20265 ft 369 kts 102°
2026-04-30 01:12 12.70027 -71.13061 19794 ft 367 kts 100°
2026-04-30 01:12 12.69606 -71.10493 19324 ft 365 kts 104°
2026-04-30 01:13 12.69186 -71.07939 18863 ft 363 kts 103°
2026-04-30 01:13 12.68770 -71.05396 18398 ft 361 kts 104°
2026-04-30 01:13 12.68359 -71.02868 17901 ft 359 kts 102°
2026-04-30 01:13 12.67948 -71.00360 17430 ft 355 kts 102°
2026-04-30 01:14 12.67542 -70.97883 16988 ft 351 kts 102°
2026-04-30 01:14 12.67142 -70.95429 16539 ft 347 kts 101°
2026-04-30 01:14 12.66747 -70.93001 16132 ft 344 kts 102°
2026-04-30 01:14 12.66363 -70.90641 15777 ft 338 kts 102°
2026-04-30 01:15 12.65974 -70.88276 15349 ft 336 kts 102°
2026-04-30 01:15 12.65585 -70.85920 14914 ft 334 kts 101°
2026-04-30 01:15 12.65199 -70.83580 14487 ft 332 kts 101°
2026-04-30 01:15 12.64817 -70.81256 14063 ft 331 kts 101°
2026-04-30 01:16 12.64437 -70.78936 13620 ft 329 kts 100°
2026-04-30 01:16 12.64058 -70.76631 13159 ft 327 kts 101°
2026-04-30 01:16 12.63682 -70.74349 12716 ft 323 kts 101°
2026-04-30 01:16 12.63314 -70.72117 12299 ft 315 kts 101°
2026-04-30 01:17 12.62949 -70.69914 11867 ft 313 kts 101°
2026-04-30 01:17 12.62586 -70.67727 11441 ft 311 kts 100°
2026-04-30 01:17 12.62227 -70.65549 11010 ft 309 kts 100°
2026-04-30 01:17 12.61872 -70.63383 10581 ft 307 kts 100°
2026-04-30 01:18 12.61520 -70.61234 10212 ft 304 kts 100°
2026-04-30 01:18 12.61183 -70.59197 9931 ft 286 kts 100°
2026-04-30 01:18 12.60856 -70.57223 9684 ft 278 kts 100°
2026-04-30 01:18 12.60540 -70.55308 9552 ft 264 kts 100°
2026-04-30 01:19 12.60241 -70.53490 9153 ft 258 kts 99°
2026-04-30 01:19 12.59940 -70.51672 8721 ft 260 kts 100°
2026-04-30 01:19 12.59638 -70.49843 8286 ft 261 kts 100°
2026-04-30 01:19 12.59336 -70.48028 7886 ft 259 kts 100°
2026-04-30 01:20 12.59038 -70.46243 7475 ft 249 kts 100°
2026-04-30 01:20 12.58749 -70.44502 6968 ft 248 kts 101°
2026-04-30 01:20 12.58458 -70.42736 6519 ft 254 kts 100°
2026-04-30 01:20 12.58166 -70.40962 6197 ft 251 kts 101°
2026-04-30 01:21 12.57879 -70.39228 5710 ft 246 kts 100°
2026-04-30 01:21 12.57605 -70.37575 5412 ft 228 kts 100°
2026-04-30 01:21 12.57340 -70.35997 5001 ft 222 kts 100°
2026-04-30 01:21 12.57089 -70.34491 4854 ft 208 kts 101°
2026-04-30 01:22 12.56849 -70.33051 4532 ft 205 kts 100°
2026-04-30 01:22 12.56613 -70.31636 4322 ft 197 kts 100°
2026-04-30 01:22 12.56389 -70.30294 4197 ft 187 kts 100°
2026-04-30 01:22 12.56173 -70.28998 4108 ft 183 kts 100°
2026-04-30 01:23 12.55958 -70.27715 4036 ft 183 kts 99°
2026-04-30 01:23 12.55817 -70.26427 3956 ft 181 kts 93°
2026-04-30 01:23 12.55680 -70.25168 3877 ft 180 kts 99°
2026-04-30 01:23 12.55447 -70.23961 3800 ft 166 kts 102°
2026-04-30 01:24 12.55200 -70.22853 3734 ft 155 kts 102°
2026-04-30 01:24 12.54959 -70.21811 3586 ft 146 kts 102°
2026-04-30 01:24 12.54727 -70.20823 3418 ft 140 kts 102°
2026-04-30 01:24 12.54502 -70.19871 3252 ft 136 kts 102°
2026-04-30 01:25 12.54284 -70.18954 3075 ft 131 kts 102°
2026-04-30 01:25 12.54069 -70.18044 2910 ft 132 kts 102°
2026-04-30 01:25 12.53854 -70.17141 2743 ft 130 kts 103°
2026-04-30 01:25 12.53643 -70.16252 2582 ft 128 kts 103°
2026-04-30 01:26 12.53436 -70.15380 2421 ft 125 kts 102°
2026-04-30 01:26 12.53230 -70.14517 2263 ft 124 kts 102°
2026-04-30 01:26 12.53030 -70.13672 2098 ft 123 kts 101°
2026-04-30 01:26 12.52826 -70.12817 1942 ft 125 kts 100°
2026-04-30 01:27 12.52619 -70.11945 1808 ft 127 kts 101°
2026-04-30 01:27 12.52408 -70.11058 1632 ft 128 kts 100°
2026-04-30 01:27 12.52197 -70.10170 1456 ft 129 kts 100°
2026-04-30 01:27 12.51986 -70.09281 1251 ft 128 kts 103°
2026-04-30 01:28 12.51774 -70.08392 1083 ft 129 kts 100°
2026-04-30 01:28 12.51559 -70.07501 936 ft 128 kts 100°
2026-04-30 01:28 12.51353 -70.06630 789 ft 125 kts 101°
2026-04-30 01:28 12.51139 -70.05741 646 ft 128 kts 99°
2026-04-30 01:29 12.50935 -70.04879 488 ft 126 kts 101°
2026-04-30 01:29 12.50728 -70.04002 297 ft 130 kts 99°
2026-04-30 01:29 12.50513 -70.03099 133 ft 130 kts 102°
2026-04-30 01:29 12.50300 -70.02206 52 ft 128 kts 104°
2026-04-30 01:30 12.50108 -70.01390 47 ft 104 kts 106°
2026-04-30 01:30 12.49980 -70.00847 51 ft 50 kts 103°
2026-04-30 01:30 12.49991 -70.00710 53 ft 14 kts 27°
2026-04-30 01:30 12.50000 -70.00707 53 ft 0 kts 21°
2026-04-30 01:31 12.50027 -70.00700 49 ft 7 kts 13°
2026-04-30 01:31 12.50097 -70.00684 48 ft 13 kts 13°
2026-04-30 01:31 12.50174 -70.00704 45 ft 13 kts 299°
2026-04-30 01:32 12.50200 -70.00784 44 ft 10 kts 310°
2026-04-30 01:32 12.50228 -70.00777 45 ft 4 kts 34°
2026-04-30 01:32 12.50255 -70.00766 47 ft 4 kts 16°
2026-04-30 01:32 12.50278 -70.00760 47 ft 0 kts 15°